Tracking 29487 objects as of 10-Sep-2024
HD Live streaming from Space Station
objects crossing your sky now

SL-6 R/B(2)

Track SL-6 R/B(2) now!


NORAD ID: 24764
Int'l Code: 1997-015D
Perigee: 3,439.1 km
Apogee: 36,485.9 km
Inclination: 65.6 °
Period: 708.8 minutes
Semi major axis: 26333 km
RCS: 5.7641 m2 (large)
Launch date: April 9, 1997
Source: Commonwealth of Independent States (former USSR) (CIS)
Launch site: PLESETSK MISSILE AND SPACE COMPLEX (PKMTR)

Note: This is a ROCKET BODY
Your satellite tracking list
Your tracking list is empty




NASA's NSSDC Master Catalog

Two Line Element Set (TLE):
1 24764U 97015D   24253.66749767  .00000675  00000-0  00000+0 0  9990
2 24764  65.5552 123.7564 6274671 146.0494 277.7471  2.03161208203465
Source of the keplerian elements: AFSPC